Time,TemperatureF,DewpointF,PressureIn,WindDirection,WindDirectionDegrees,WindSpeedMPH,WindSpeedGustMPH,Humidity,HourlyPrecipIn,Conditions,Clouds,dailyrainin,SoftwareType,DateUTC
2013-03-11 00:00:00,70.5,59.0,30.06,East,90,0.0,0.0,67,0.00,CLR,,0.00,WeatherDisplay:10.37,2013-03-11 04:00:00,
2013-03-11 00:01:00,70.5,59.0,30.06,East,90,0.0,0.0,67,0.00,CLR,,0.00,WeatherDisplay:10.37,2013-03-11 04:01:00,
2013-03-11 00:06:00,70.3,58.9,30.06,East,90,0.0,0.0,67,0.00,CLR,,0.00,WeatherDisplay:10.37,2013-03-11 04:06:00,
2013-03-11 00:11:00,70.3,58.9,30.05,East,90,0.0,0.0,67,0.00,CLR,,0.00,WeatherDisplay:10.37,2013-03-11 04:11:00,
2013-03-11 00:16:00,70.3,58.9,30.05,East,90,0.0,0.0,67,0.00,CLR,,0.00,WeatherDisplay:10.37,2013-03-11 04:16:00,
2013-03-11 00:22:00,70.3,58.9,30.05,East,90,0.0,0.0,67,0.00,CLR,,0.00,WeatherDisplay:10.37,2013-03-11 04:22:00,
2013-03-11 00:27:00,70.3,58.9,30.05,East,90,0.0,0.0,67,0.00,CLR,,0.00,WeatherDisplay:10.37,2013-03-11 04:27:00,
2013-03-11 00:32:00,70.2,58.7,30.05,East,90,0.0,0.0,67,0.00,CLR,,0.00,WeatherDisplay:10.37,2013-03-11 04:32:00,
2013-03-11 00:37:00,70.2,58.7,30.05,East,90,0.0,0.0,67,0.00,CLR,,0.00,WeatherDisplay:10.37,2013-03-11 04:37:00,
2013-03-11 00:42:00,70.2,58.7,30.05,East,90,0.0,0.0,67,0.00,CLR,,0.00,WeatherDisplay:10.37,2013-03-11 04:42:00,
2013-03-11 00:47:00,70.2,59.1,30.05,East,90,0.0,0.0,68,0.00,CLR,,0.00,WeatherDisplay:10.37,2013-03-11 04:47:00,
2013-03-11 00:52:00,70.3,58.9,30.04,East,90,0.0,0.0,67,0.00,CLR,,0.00,WeatherDisplay:10.37,2013-03-11 04:52:00,
2013-03-11 00:57:00,70.2,59.1,30.04,East,90,0.0,0.0,68,0.00,CLR,,0.00,WeatherDisplay:10.37,2013-03-11 04:57:00,
2013-03-11 01:03:00,70.2,59.1,30.04,East,90,0.0,0.0,68,0.00,CLR,,0.00,WeatherDisplay:10.37,2013-03-11 05:03:00,
2013-03-11 01:08:00,70.2,58.7,30.04,East,90,0.0,0.0,67,0.00,CLR,,0.00,WeatherDisplay:10.37,2013-03-11 05:08:00,
2013-03-11 01:13:00,70.2,59.1,30.04,East,90,0.0,0.0,68,0.00,CLR,,0.00,WeatherDisplay:10.37,2013-03-11 05:13:00,
2013-03-11 01:18:00,70.0,58.9,30.04,East,90,0.0,0.0,68,0.00,CLR,,0.00,WeatherDisplay:10.37,2013-03-11 05:18:00,
2013-03-11 01:23:00,70.2,59.1,30.04,East,90,0.0,0.0,68,0.00,CLR,,0.00,WeatherDisplay:10.37,2013-03-11 05:23:00,
2013-03-11 01:28:00,70.0,58.5,30.04,East,90,0.0,0.0,67,0.00,CLR,,0.00,WeatherDisplay:10.37,2013-03-11 05:28:00,
2013-03-11 01:33:00,70.0,58.5,30.03,East,90,0.0,0.0,67,0.00,CLR,,0.00,WeatherDisplay:10.37,2013-03-11 05:33:00,
2013-03-11 01:38:00,70.0,58.5,30.03,East,90,0.0,0.0,67,0.00,CLR,,0.00,WeatherDisplay:10.37,2013-03-11 05:38:00,
2013-03-11 01:43:00,70.0,58.5,30.03,East,90,0.0,0.0,67,0.00,CLR,,0.00,WeatherDisplay:10.37,2013-03-11 05:43:00,
2013-03-11 01:48:00,69.8,58.3,30.03,East,90,0.0,0.0,67,0.00,CLR,,0.00,WeatherDisplay:10.37,2013-03-11 05:48:00,
2013-03-11 01:53:00,69.8,58.3,30.03,East,90,0.0,0.0,67,0.00,CLR,,0.00,WeatherDisplay:10.37,2013-03-11 05:53:00,
2013-03-11 01:58:00,69.8,58.3,30.03,East,90,0.0,0.0,67,0.00,CLR,,0.00,WeatherDisplay:10.37,2013-03-11 05:58:00,
2013-03-11 02:03:00,69.8,58.3,30.03,East,90,0.0,0.0,67,0.00,CLR,,0.00,WeatherDisplay:10.37,2013-03-11 06:03:00,
2013-03-11 02:08:00,70.0,58.5,30.03,East,90,0.0,0.0,67,0.00,CLR,,0.00,WeatherDisplay:10.37,2013-03-11 06:08:00,
2013-03-11 02:13:00,70.0,58.5,30.02,East,90,0.0,0.0,67,0.00,CLR,,0.00,WeatherDisplay:10.37,2013-03-11 06:13:00,
2013-03-11 02:18:00,70.0,58.5,30.02,ESE,112,0.0,0.0,67,0.00,CLR,,0.00,WeatherDisplay:10.37,2013-03-11 06:18:00,
2013-03-11 02:23:00,70.0,58.5,30.02,ESE,112,8.1,8.1,67,0.00,CLR,,0.00,WeatherDisplay:10.37,2013-03-11 06:23:00,
2013-03-11 02:28:00,69.8,58.3,30.02,ESE,112,6.9,6.9,67,0.00,CLR,,0.00,WeatherDisplay:10.37,2013-03-11 06:28:00,
2013-03-11 02:33:00,69.8,58.3,30.02,ENE,68,6.9,6.9,67,0.00,CLR,,0.00,WeatherDisplay:10.37,2013-03-11 06:33:00,
2013-03-11 02:38:00,69.8,58.3,30.02,NE,45,6.9,6.9,67,0.00,CLR,,0.00,WeatherDisplay:10.37,2013-03-11 06:38:00,
2013-03-11 02:43:00,69.8,58.3,30.02,ENE,68,8.1,8.1,67,0.00,CLR,,0.00,WeatherDisplay:10.37,2013-03-11 06:43:00,
2013-03-11 02:48:00,70.0,58.5,30.02,SE,135,8.1,8.1,67,0.00,CLR,,0.00,WeatherDisplay:10.37,2013-03-11 06:48:00,
2013-03-11 02:53:00,70.0,58.5,30.00,ESE,112,6.9,6.9,67,0.00,CLR,,0.00,WeatherDisplay:10.37,2013-03-11 06:53:00,
2013-03-11 02:58:00,69.8,58.3,30.00,East,90,5.8,6.1,67,0.00,CLR,,0.00,WeatherDisplay:10.37,2013-03-11 06:58:00,
2013-03-11 03:03:00,70.0,58.5,30.00,ENE,68,6.9,6.9,67,0.00,CLR,,0.00,WeatherDisplay:10.37,2013-03-11 07:03:00,
2013-03-11 03:08:00,70.0,58.5,30.00,ESE,112,6.9,6.9,67,0.00,CLR,,0.00,WeatherDisplay:10.37,2013-03-11 07:08:00,
2013-03-11 03:13:00,69.8,58.8,30.00,ESE,112,5.8,5.8,68,0.00,CLR,,0.00,WeatherDisplay:10.37,2013-03-11 07:13:00,
2013-03-11 03:18:00,69.8,58.8,30.00,SE,135,4.6,5.2,68,0.00,CLR,,0.00,WeatherDisplay:10.37,2013-03-11 07:18:00,
2013-03-11 03:23:00,70.0,58.5,30.00,SSE,158,4.6,5.1,67,0.00,CLR,,0.00,WeatherDisplay:10.37,2013-03-11 07:23:00,
2013-03-11 03:28:00,70.0,58.9,30.00,ESE,112,6.9,6.9,68,0.00,CLR,,0.00,WeatherDisplay:10.37,2013-03-11 07:28:00,
2013-03-11 03:33:00,70.0,58.5,30.00,South,180,6.9,6.9,67,0.00,CLR,,0.00,WeatherDisplay:10.37,2013-03-11 07:33:00,
2013-03-11 03:38:00,70.0,58.9,30.00,ENE,68,6.9,6.9,68,0.00,CLR,,0.00,WeatherDisplay:10.37,2013-03-11 07:38:00,
2013-03-11 03:43:00,70.0,58.9,30.00,SE,135,9.2,9.2,68,0.00,CLR,,0.00,WeatherDisplay:10.37,2013-03-11 07:43:00,
2013-03-11 03:48:00,69.8,58.8,30.00,East,90,5.8,5.8,68,0.00,CLR,,0.00,WeatherDisplay:10.37,2013-03-11 07:48:00,
2013-03-11 03:53:00,69.8,58.8,29.99,SE,135,6.9,6.9,68,0.00,CLR,,0.00,WeatherDisplay:10.37,2013-03-11 07:53:00,
2013-03-11 03:58:00,70.0,58.9,29.99,ESE,112,3.5,4.9,68,0.00,CLR,,0.00,WeatherDisplay:10.37,2013-03-11 07:58:00,
2013-03-11 04:03:00,70.0,58.9,29.99,West,270,6.9,6.9,68,0.00,CLR,,0.00,WeatherDisplay:10.37,2013-03-11 08:03:00,
2013-03-11 04:08:00,70.0,58.9,29.99,SSE,158,3.5,5.3,68,0.00,CLR,,0.00,WeatherDisplay:10.37,2013-03-11 08:08:00,
2013-03-11 04:13:00,69.8,58.8,29.98,ESE,112,8.1,8.1,68,0.00,CLR,,0.00,WeatherDisplay:10.37,2013-03-11 08:13:00,
2013-03-11 04:18:00,69.8,58.8,29.98,ENE,68,5.8,5.8,68,0.00,CLR,,0.00,WeatherDisplay:10.37,2013-03-11 08:18:00,
2013-03-11 04:23:00,69.8,58.8,29.98,NE,45,4.6,4.9,68,0.00,CLR,,0.00,WeatherDisplay:10.37,2013-03-11 08:23:00,
2013-03-11 04:28:00,70.0,58.9,29.98,NE,45,5.8,5.8,68,0.00,CLR,,0.00,WeatherDisplay:10.37,2013-03-11 08:28:00,
2013-03-11 04:33:00,70.0,59.3,29.98,East,90,6.9,6.9,69,0.00,CLR,,0.00,WeatherDisplay:10.37,2013-03-11 08:33:00,
2013-03-11 04:38:00,69.8,58.8,29.98,SE,135,4.6,4.7,68,0.00,CLR,,0.00,WeatherDisplay:10.37,2013-03-11 08:38:00,
2013-03-11 04:43:00,70.0,58.9,29.98,ENE,68,8.1,8.1,68,0.00,CLR,,0.00,WeatherDisplay:10.37,2013-03-11 08:43:00,
2013-03-11 04:48:00,70.0,58.9,29.98,ENE,68,5.8,5.8,68,0.00,CLR,,0.00,WeatherDisplay:10.37,2013-03-11 08:48:00,
2013-03-11 04:53:00,70.0,58.5,29.97,ESE,112,9.2,9.2,67,0.00,CLR,,0.00,WeatherDisplay:10.37,2013-03-11 08:53:00,
2013-03-11 04:58:00,70.0,58.5,29.97,ESE,112,10.4,10.4,67,0.00,CLR,,0.00,WeatherDisplay:10.37,2013-03-11 08:58:00,
2013-03-11 05:03:00,70.0,58.5,29.97,ESE,112,5.8,5.8,67,0.00,CLR,,0.00,WeatherDisplay:10.37,2013-03-11 09:03:00,
2013-03-11 05:08:00,69.8,58.3,29.97,ESE,112,4.6,5.1,67,0.00,CLR,,0.00,WeatherDisplay:10.37,2013-03-11 09:08:00,
2013-03-11 05:13:00,69.8,58.3,29.97,ESE,112,9.2,9.2,67,0.00,CLR,,0.00,WeatherDisplay:10.37,2013-03-11 09:13:00,
2013-03-11 05:18:00,70.0,58.5,29.97,ENE,68,4.6,4.8,67,0.00,CLR,,0.00,WeatherDisplay:10.37,2013-03-11 09:18:00,
2013-03-11 05:23:00,70.0,58.5,29.97,SE,135,6.9,6.9,67,0.00,CLR,,0.00,WeatherDisplay:10.37,2013-03-11 09:23:00,
2013-03-11 05:28:00,69.8,58.3,29.97,SE,135,5.8,5.8,67,0.00,CLR,,0.00,WeatherDisplay:10.37,2013-03-11 09:28:00,
2013-03-11 05:34:00,69.8,57.9,29.97,ESE,112,6.9,6.9,66,0.00,CLR,,0.00,WeatherDisplay:10.37,2013-03-11 09:34:00,
2013-03-11 05:39:00,69.8,58.3,29.97,ESE,112,3.5,4.7,67,0.00,CLR,,0.00,WeatherDisplay:10.37,2013-03-11 09:39:00,
2013-03-11 05:44:00,69.8,58.3,29.97,East,90,9.2,9.2,67,0.00,CLR,,0.00,WeatherDisplay:10.37,2013-03-11 09:44:00,
2013-03-11 05:49:00,69.8,57.9,29.97,NE,45,6.9,6.9,66,0.00,CLR,,0.00,WeatherDisplay:10.37,2013-03-11 09:49:00,
2013-03-11 05:54:00,69.8,58.3,29.96,NW,315,8.1,8.1,67,0.00,CLR,,0.00,WeatherDisplay:10.37,2013-03-11 09:54:00,
2013-03-11 05:59:00,69.8,58.3,29.96,ESE,112,4.6,4.9,67,0.00,CLR,,0.00,WeatherDisplay:10.37,2013-03-11 09:59:00,
2013-03-11 06:04:00,69.6,57.8,29.96,ESE,112,5.8,5.8,66,0.00,CLR,,0.00,WeatherDisplay:10.37,2013-03-11 10:04:00,
2013-03-11 06:09:00,69.6,57.8,29.96,ESE,112,5.8,5.8,66,0.00,CLR,,0.00,WeatherDisplay:10.37,2013-03-11 10:09:00,
2013-03-11 06:14:00,69.6,57.8,29.96,ESE,112,5.8,5.8,66,0.00,CLR,,0.00,WeatherDisplay:10.37,2013-03-11 10:14:00,
2013-03-11 06:19:00,69.6,57.8,29.96,ESE,112,5.8,5.8,66,0.00,CLR,,0.00,WeatherDisplay:10.37,2013-03-11 10:19:00,
2013-03-11 06:24:00,69.6,57.8,29.96,ESE,112,5.8,5.8,66,0.00,CLR,,0.00,WeatherDisplay:10.37,2013-03-11 10:24:00,
2013-03-11 06:29:00,69.8,58.3,29.96,SE,135,6.9,6.9,67,0.00,CLR,,0.00,WeatherDisplay:10.37,2013-03-11 10:29:00,
2013-03-11 06:34:00,69.6,57.8,29.97,SE,135,4.6,5.3,66,0.00,CLR,,0.00,WeatherDisplay:10.37,2013-03-11 10:34:00,
2013-03-11 06:39:00,69.6,57.8,29.97,ESE,112,4.6,4.6,66,0.00,CLR,,0.00,WeatherDisplay:10.37,2013-03-11 10:39:00,
2013-03-11 06:44:00,70.0,58.5,29.97,ESE,112,4.6,4.6,67,0.00,CLR,,0.00,WeatherDisplay:10.37,2013-03-11 10:44:00,
2013-03-11 06:49:00,70.0,58.5,29.97,ESE,112,5.8,5.8,67,0.00,CLR,,0.00,WeatherDisplay:10.37,2013-03-11 10:49:00,
2013-03-11 06:54:00,70.0,58.5,29.97,ENE,68,4.6,4.7,67,0.00,CLR,,0.00,WeatherDisplay:10.37,2013-03-11 10:54:00,
2013-03-11 06:59:00,70.2,58.7,29.97,NNE,22,5.8,5.8,67,0.00,CLR,,0.00,WeatherDisplay:10.37,2013-03-11 10:59:00,
2013-03-11 07:04:00,70.2,58.7,29.97,ESE,112,6.9,6.9,67,0.00,CLR,,0.00,WeatherDisplay:10.37,2013-03-11 11:04:00,
2013-03-11 07:09:00,70.2,58.7,29.97,ESE,112,6.9,6.9,67,0.00,CLR,,0.00,WeatherDisplay:10.37,2013-03-11 11:09:00,
2013-03-11 07:14:00,70.3,58.9,29.97,ESE,112,3.5,4.5,67,0.00,CLR,,0.00,WeatherDisplay:10.37,2013-03-11 11:14:00,
2013-03-11 07:19:00,70.7,59.2,29.97,ESE,112,3.5,4.5,67,0.00,CLR,,0.00,WeatherDisplay:10.37,2013-03-11 11:19:00,
2013-03-11 07:24:00,70.7,59.2,29.97,East,90,8.1,8.1,67,0.00,CLR,,0.00,WeatherDisplay:10.37,2013-03-11 11:24:00,
2013-03-11 07:29:00,70.5,59.0,29.97,SE,135,5.8,5.8,67,0.00,CLR,,0.00,WeatherDisplay:10.37,2013-03-11 11:29:00,
2013-03-11 07:34:00,70.3,58.9,29.97,NNE,22,6.9,6.9,67,0.00,CLR,,0.00,WeatherDisplay:10.37,2013-03-11 11:34:00,
2013-03-11 07:39:00,70.5,59.0,29.97,East,90,3.5,5.4,67,0.00,CLR,,0.00,WeatherDisplay:10.37,2013-03-11 11:39:00,
2013-03-11 07:44:00,70.7,59.6,29.97,ESE,112,5.8,5.8,68,0.00,CLR,,0.00,WeatherDisplay:10.37,2013-03-11 11:44:00,
2013-03-11 07:49:00,70.5,59.0,29.97,ENE,68,6.9,6.9,67,0.00,CLR,,0.00,WeatherDisplay:10.37,2013-03-11 11:49:00,
2013-03-11 07:54:00,70.7,59.2,29.97,ESE,112,6.9,6.9,67,0.00,CLR,,0.00,WeatherDisplay:10.37,2013-03-11 11:54:00,
2013-03-11 07:59:00,70.9,59.4,29.97,SE,135,5.8,5.8,67,0.00,CLR,,0.00,WeatherDisplay:10.37,2013-03-11 11:59:00,
2013-03-11 08:04:00,70.9,59.4,29.97,SE,135,6.9,6.9,67,0.00,CLR,,0.00,WeatherDisplay:10.37,2013-03-11 12:04:00,
2013-03-11 08:09:00,71.1,59.5,29.97,ESE,112,5.8,5.8,67,0.00,CLR,,0.00,WeatherDisplay:10.37,2013-03-11 12:09:00,
2013-03-11 08:14:00,70.9,59.4,29.97,ENE,68,8.1,8.1,67,0.00,CLR,,0.00,WeatherDisplay:10.37,2013-03-11 12:14:00,
2013-03-11 08:19:00,70.9,59.4,29.97,ESE,112,5.8,5.8,67,0.00,CLR,,0.00,WeatherDisplay:10.37,2013-03-11 12:19:00,
2013-03-11 08:24:00,71.1,59.5,29.97,NE,45,4.6,5.1,67,0.00,CLR,,0.00,WeatherDisplay:10.37,2013-03-11 12:24:00,
2013-03-11 08:29:00,71.2,59.3,29.97,East,90,10.4,10.4,66,0.00,CLR,,0.00,WeatherDisplay:10.37,2013-03-11 12:29:00,
2013-03-11 08:34:00,71.2,59.3,29.99,ENE,68,6.9,6.9,66,0.00,CLR,,0.00,WeatherDisplay:10.37,2013-03-11 12:34:00,
2013-03-11 08:39:00,71.4,59.5,29.99,ESE,112,10.4,10.4,66,0.00,CLR,,0.00,WeatherDisplay:10.37,2013-03-11 12:39:00,
2013-03-11 08:45:00,71.8,59.8,29.99,SE,135,4.6,4.6,66,0.00,CLR,,0.00,WeatherDisplay:10.37,2013-03-11 12:45:00,
2013-03-11 08:50:00,72.1,60.2,29.99,NNW,338,8.1,8.1,66,0.00,CLR,,0.00,WeatherDisplay:10.37,2013-03-11 12:50:00,
2013-03-11 08:55:00,72.5,60.1,29.99,SE,135,5.8,5.8,65,0.00,CLR,,0.00,WeatherDisplay:10.37,2013-03-11 12:55:00,
2013-03-11 09:00:00,72.3,59.9,29.99,SE,135,5.8,5.8,65,0.00,CLR,,0.00,WeatherDisplay:10.37,2013-03-11 13:00:00,
2013-03-11 09:05:00,72.5,59.6,29.99,ESE,112,4.6,4.6,64,0.00,CLR,,0.00,WeatherDisplay:10.37,2013-03-11 13:05:00,
2013-03-11 09:10:00,72.7,59.8,29.99,SE,135,8.1,8.1,64,0.00,CLR,,0.00,WeatherDisplay:10.37,2013-03-11 13:10:00,
2013-03-11 09:15:00,72.5,59.6,30.00,ESE,112,8.1,8.1,64,0.00,CLR,,0.00,WeatherDisplay:10.37,2013-03-11 13:15:00,
2013-03-11 09:20:00,72.3,59.0,30.00,SE,135,8.1,8.1,63,0.00,CLR,,0.00,WeatherDisplay:10.37,2013-03-11 13:20:00,
2013-03-11 09:25:00,72.5,59.6,30.00,ESE,112,5.8,5.8,64,0.00,CLR,,0.00,WeatherDisplay:10.37,2013-03-11 13:25:00,
2013-03-11 09:30:00,72.5,59.6,30.00,ESE,112,6.9,6.9,64,0.00,CLR,,0.00,WeatherDisplay:10.37,2013-03-11 13:30:00,
2013-03-11 09:35:00,72.5,59.6,30.00,SE,135,4.6,5.3,64,0.00,CLR,,0.00,WeatherDisplay:10.37,2013-03-11 13:35:00,
2013-03-11 09:40:00,72.9,60.0,30.00,ESE,112,6.9,6.9,64,0.00,CLR,,0.00,WeatherDisplay:10.37,2013-03-11 13:40:00,
2013-03-11 09:45:00,73.6,60.6,30.00,ESE,112,6.9,6.9,64,0.00,CLR,,0.00,WeatherDisplay:10.37,2013-03-11 13:45:00,
2013-03-11 09:50:00,73.9,60.5,30.00,SE,135,4.6,4.8,63,0.00,CLR,,0.00,WeatherDisplay:10.37,2013-03-11 13:50:00,
2013-03-11 09:55:00,74.3,60.4,30.00,ESE,112,4.6,4.6,62,0.00,CLR,,0.00,WeatherDisplay:10.37,2013-03-11 13:55:00,
2013-03-11 10:00:00,73.9,60.5,30.00,ESE,112,6.9,6.9,63,0.00,CLR,,0.00,WeatherDisplay:10.37,2013-03-11 14:00:00,
2013-03-11 10:05:00,73.6,59.8,30.00,ESE,112,6.9,6.9,62,0.00,CLR,,0.00,WeatherDisplay:10.37,2013-03-11 14:05:00,
2013-03-11 10:10:00,73.6,59.8,30.00,SE,135,5.8,5.8,62,0.00,CLR,,0.00,WeatherDisplay:10.37,2013-03-11 14:10:00,
2013-03-11 10:15:00,73.2,59.9,30.00,SE,135,3.5,4.7,63,0.00,CLR,,0.00,WeatherDisplay:10.37,2013-03-11 14:15:00,
2013-03-11 10:20:00,73.2,60.3,30.00,East,90,4.6,4.6,64,0.00,CLR,,0.00,WeatherDisplay:10.37,2013-03-11 14:20:00,
2013-03-11 10:25:00,73.0,59.7,30.00,SE,135,4.6,4.6,63,0.00,CLR,,0.00,WeatherDisplay:10.37,2013-03-11 14:25:00,
2013-03-11 10:30:00,73.0,59.7,30.00,SE,135,5.8,5.8,63,0.00,CLR,,0.00,WeatherDisplay:10.37,2013-03-11 14:30:00,
2013-03-11 10:35:00,73.4,60.0,30.00,East,90,5.8,5.8,63,0.00,CLR,,0.00,WeatherDisplay:10.37,2013-03-11 14:35:00,
2013-03-11 10:40:00,73.6,60.2,30.00,NW,315,5.8,5.8,63,0.00,CLR,,0.00,WeatherDisplay:10.37,2013-03-11 14:40:00,
2013-03-11 10:45:00,73.9,60.1,30.00,South,180,4.6,4.6,62,0.00,CLR,,0.00,WeatherDisplay:10.37,2013-03-11 14:45:00,
2013-03-11 10:50:00,74.1,59.8,30.00,SE,135,9.2,9.2,61,0.00,CLR,,0.00,WeatherDisplay:10.37,2013-03-11 14:50:00,
2013-03-11 10:55:00,74.7,60.3,30.01,South,180,8.1,8.1,61,0.00,CLR,,0.00,WeatherDisplay:10.37,2013-03-11 14:55:00,
2013-03-11 11:00:00,74.8,60.0,30.01,SSE,158,6.9,6.9,60,0.00,CLR,,0.00,WeatherDisplay:10.37,2013-03-11 15:00:00,
2013-03-11 11:05:00,75.2,60.4,30.01,ESE,112,6.9,6.9,60,0.00,CLR,,0.00,WeatherDisplay:10.37,2013-03-11 15:05:00,
2013-03-11 11:10:00,75.7,60.9,30.01,SSE,158,5.8,5.8,60,0.00,CLR,,0.00,WeatherDisplay:10.37,2013-03-11 15:10:00,
2013-03-11 11:15:00,75.9,61.0,30.01,SE,135,3.5,4.3,60,0.00,CLR,,0.00,WeatherDisplay:10.37,2013-03-11 15:15:00,
2013-03-11 11:20:00,76.5,61.5,30.01,East,90,9.2,9.2,60,0.00,CLR,,0.00,WeatherDisplay:10.37,2013-03-11 15:20:00,
2013-03-11 11:25:00,76.3,60.9,30.01,SSE,158,5.8,5.8,59,0.00,CLR,,0.00,WeatherDisplay:10.37,2013-03-11 15:25:00,
2013-03-11 11:30:00,76.6,61.2,30.01,SSE,158,5.8,5.8,59,0.00,CLR,,0.00,WeatherDisplay:10.37,2013-03-11 15:30:00,
2013-03-11 11:35:00,77.2,61.7,30.00,South,180,5.8,5.8,59,0.00,CLR,,0.00,WeatherDisplay:10.37,2013-03-11 15:35:00,
2013-03-11 11:40:00,77.5,62.1,30.00,ESE,112,6.9,6.9,59,0.00,CLR,,0.00,WeatherDisplay:10.37,2013-03-11 15:40:00,
2013-03-11 11:45:00,77.9,61.9,30.00,ESE,112,5.8,6.0,58,0.00,CLR,,0.00,WeatherDisplay:10.37,2013-03-11 15:45:00,
2013-03-11 11:50:00,77.9,61.9,30.00,ESE,112,8.1,8.1,58,0.00,CLR,,0.00,WeatherDisplay:10.37,2013-03-11 15:50:00,
2013-03-11 11:55:00,78.4,61.9,30.00,SE,135,9.2,9.2,57,0.00,CLR,,0.00,WeatherDisplay:10.37,2013-03-11 15:55:00,
2013-03-11 12:00:00,78.8,61.8,30.00,SSW,202,6.9,6.9,56,0.00,CLR,,0.00,WeatherDisplay:10.37,2013-03-11 16:00:00,
2013-03-11 12:05:00,79.0,61.9,30.00,SSW,202,9.2,9.2,56,0.00,CLR,,0.00,WeatherDisplay:10.37,2013-03-11 16:05:00,
2013-03-11 12:10:00,79.3,61.8,30.00,SE,135,5.8,6.7,55,0.00,CLR,,0.00,WeatherDisplay:10.37,2013-03-11 16:10:00,
2013-03-11 12:15:00,79.5,62.4,30.01,SE,135,8.1,8.1,56,0.00,CLR,,0.00,WeatherDisplay:10.37,2013-03-11 16:15:00,
2013-03-11 12:20:00,79.9,62.3,30.01,SE,135,6.9,6.9,55,0.00,CLR,,0.00,WeatherDisplay:10.37,2013-03-11 16:20:00,
2013-03-11 12:25:00,79.9,61.7,30.01,SE,135,9.2,9.2,54,0.00,CLR,,0.00,WeatherDisplay:10.37,2013-03-11 16:25:00,
2013-03-11 12:30:00,80.1,62.4,30.00,SE,135,11.5,11.5,55,0.00,CLR,,0.00,WeatherDisplay:10.37,2013-03-11 16:30:00,
2013-03-11 12:35:00,80.1,62.4,30.00,ESE,112,12.7,12.7,55,0.00,CLR,,0.00,WeatherDisplay:10.37,2013-03-11 16:35:00,
2013-03-11 12:40:00,80.4,62.2,30.00,SE,135,11.5,11.5,54,0.00,CLR,,0.00,WeatherDisplay:10.37,2013-03-11 16:40:00,
2013-03-11 12:45:00,80.8,63.1,30.00,SE,135,9.2,9.2,55,0.00,CLR,,0.00,WeatherDisplay:10.37,2013-03-11 16:45:00,
2013-03-11 12:50:00,80.8,62.6,29.99,South,180,6.9,6.9,54,0.00,CLR,,0.00,WeatherDisplay:10.37,2013-03-11 16:50:00,
2013-03-11 12:55:00,81.1,62.9,29.99,ENE,68,10.4,10.4,54,0.00,CLR,,0.00,WeatherDisplay:10.37,2013-03-11 16:55:00,
2013-03-11 13:00:00,81.0,62.2,29.99,SSE,158,10.4,10.4,53,0.00,CLR,,0.00,WeatherDisplay:10.37,2013-03-11 17:00:00,
2013-03-11 13:05:00,81.1,62.4,29.99,SSE,158,12.7,12.7,53,0.00,CLR,,0.00,WeatherDisplay:10.37,2013-03-11 17:05:00,
2013-03-11 13:10:00,81.0,62.7,29.97,SE,135,9.2,9.2,54,0.00,CLR,,0.00,WeatherDisplay:10.37,2013-03-11 17:10:00,
2013-03-11 13:15:00,81.5,62.7,29.97,SE,135,9.2,9.2,53,0.00,CLR,,0.00,WeatherDisplay:10.37,2013-03-11 17:15:00,
2013-03-11 13:20:00,81.7,62.9,29.97,East,90,8.1,8.1,53,0.00,CLR,,0.00,WeatherDisplay:10.37,2013-03-11 17:20:00,
2013-03-11 13:25:00,82.0,62.7,29.97,South,180,9.2,9.2,52,0.00,CLR,,0.00,WeatherDisplay:10.37,2013-03-11 17:25:00,
2013-03-11 13:30:00,82.0,62.7,29.98,SSE,158,10.4,10.4,52,0.00,CLR,,0.00,WeatherDisplay:10.37,2013-03-11 17:30:00,
2013-03-11 13:35:00,81.9,62.0,29.98,SSE,158,8.1,8.1,51,0.00,CLR,,0.00,WeatherDisplay:10.37,2013-03-11 17:35:00,
2013-03-11 13:40:00,81.9,62.5,29.98,SE,135,5.8,6.8,52,0.00,CLR,,0.00,WeatherDisplay:10.37,2013-03-11 17:40:00,
2013-03-11 13:45:00,82.2,62.3,29.98,SSE,158,8.1,8.1,51,0.00,CLR,,0.00,WeatherDisplay:10.37,2013-03-11 17:45:00,
2013-03-11 13:50:00,82.2,61.7,29.97,SE,135,8.1,8.1,50,0.00,CLR,,0.00,WeatherDisplay:10.37,2013-03-11 17:50:00,
2013-03-11 13:55:00,82.6,62.6,29.97,SE,135,8.1,8.1,51,0.00,CLR,,0.00,WeatherDisplay:10.37,2013-03-11 17:55:00,
2013-03-11 14:00:00,82.8,61.6,29.97,SSE,158,10.4,10.4,49,0.00,CLR,,0.00,WeatherDisplay:10.37,2013-03-11 18:00:00,
2013-03-11 14:05:00,82.6,62.1,29.97,SE,135,8.1,8.1,50,0.00,CLR,,0.00,WeatherDisplay:10.37,2013-03-11 18:05:00,
2013-03-11 14:11:00,82.6,61.5,29.97,SE,135,11.5,11.5,49,0.00,CLR,,0.00,WeatherDisplay:10.37,2013-03-11 18:11:00,
2013-03-11 14:16:00,82.6,62.1,29.97,SE,135,11.5,11.5,50,0.00,CLR,,0.00,WeatherDisplay:10.37,2013-03-11 18:16:00,
2013-03-11 14:21:00,82.9,62.4,29.97,South,180,11.5,11.5,50,0.00,CLR,,0.00,WeatherDisplay:10.37,2013-03-11 18:21:00,
2013-03-11 14:26:00,83.1,62.6,29.97,SE,135,6.9,6.9,50,0.00,CLR,,0.00,WeatherDisplay:10.37,2013-03-11 18:26:00,
2013-03-11 14:31:00,82.9,62.4,29.96,SE,135,9.2,9.2,50,0.00,CLR,,0.00,WeatherDisplay:10.37,2013-03-11 18:31:00,
2013-03-11 14:36:00,82.9,61.8,29.96,SE,135,10.4,10.4,49,0.00,CLR,,0.00,WeatherDisplay:10.37,2013-03-11 18:36:00,
2013-03-11 14:41:00,82.8,62.8,29.96,South,180,9.2,9.2,51,0.00,CLR,,0.00,WeatherDisplay:10.37,2013-03-11 18:41:00,
2013-03-11 14:46:00,82.9,63.0,29.96,SW,225,4.6,5.9,51,0.00,CLR,,0.00,WeatherDisplay:10.37,2013-03-11 18:46:00,
2013-03-11 14:52:00,82.9,63.0,29.97,SE,135,11.5,11.5,51,0.00,CLR,,0.00,WeatherDisplay:10.37,2013-03-11 18:52:00,
2013-03-11 14:57:00,82.8,62.8,29.97,SE,135,9.2,9.2,51,0.00,CLR,,0.00,WeatherDisplay:10.37,2013-03-11 18:57:00,
2013-03-11 15:02:00,82.9,63.0,29.97,SSE,158,10.4,10.4,51,0.00,CLR,,0.00,WeatherDisplay:10.37,2013-03-11 19:02:00,
2013-03-11 15:07:00,82.6,62.1,29.97,ESE,112,9.2,9.2,50,0.00,CLR,,0.00,WeatherDisplay:10.37,2013-03-11 19:07:00,
2013-03-11 15:12:00,82.2,62.8,29.98,SSE,158,4.6,5.5,52,0.00,CLR,,0.00,WeatherDisplay:10.37,2013-03-11 19:12:00,
2013-03-11 15:17:00,82.6,63.2,29.98,SE,135,8.1,8.1,52,0.00,CLR,,0.00,WeatherDisplay:10.37,2013-03-11 19:17:00,
2013-03-11 15:22:00,82.6,63.2,29.98,South,180,4.6,5.5,52,0.00,CLR,,0.00,WeatherDisplay:10.37,2013-03-11 19:22:00,
2013-03-11 15:27:00,83.5,63.4,29.98,ESE,112,9.2,9.2,51,0.00,CLR,,0.00,WeatherDisplay:10.37,2013-03-11 19:27:00,
2013-03-11 15:32:00,83.7,63.6,29.98,SSE,158,8.1,8.1,51,0.00,CLR,,0.00,WeatherDisplay:10.37,2013-03-11 19:32:00,
2013-03-11 15:37:00,83.5,63.4,29.98,ESE,112,5.8,6.1,51,0.00,CLR,,0.00,WeatherDisplay:10.37,2013-03-11 19:37:00,
2013-03-11 15:42:00,83.7,63.6,29.98,SSE,158,8.1,8.1,51,0.00,CLR,,0.00,WeatherDisplay:10.37,2013-03-11 19:42:00,
2013-03-11 15:47:00,83.7,63.6,29.98,SW,225,8.1,8.1,51,0.00,CLR,,0.00,WeatherDisplay:10.37,2013-03-11 19:47:00,
2013-03-11 15:52:00,83.5,63.4,29.98,NE,45,10.4,10.4,51,0.00,CLR,,0.00,WeatherDisplay:10.37,2013-03-11 19:52:00,
2013-03-11 15:57:00,83.1,63.1,29.98,SE,135,9.2,9.2,51,0.00,CLR,,0.00,WeatherDisplay:10.37,2013-03-11 19:57:00,
2013-03-11 16:02:00,82.0,62.7,29.98,SE,135,6.9,6.9,52,0.00,CLR,,0.00,WeatherDisplay:10.37,2013-03-11 20:02:00,
2013-03-11 16:07:00,82.2,63.4,29.98,East,90,9.2,9.2,53,0.00,CLR,,0.00,WeatherDisplay:10.37,2013-03-11 20:07:00,
2013-03-11 16:12:00,81.9,62.5,29.98,ESE,112,6.9,6.9,52,0.00,CLR,,0.00,WeatherDisplay:10.37,2013-03-11 20:12:00,
2013-03-11 16:17:00,81.5,62.7,29.98,SE,135,8.1,8.1,53,0.00,CLR,,0.00,WeatherDisplay:10.37,2013-03-11 20:17:00,
2013-03-11 16:23:00,80.8,62.6,29.98,SSE,158,4.6,4.9,54,0.00,CLR,,0.00,WeatherDisplay:10.37,2013-03-11 20:23:00,
2013-03-11 16:28:00,80.8,62.6,29.98,SE,135,8.1,8.1,54,0.00,CLR,,0.00,WeatherDisplay:10.37,2013-03-11 20:28:00,
2013-03-11 16:33:00,81.0,63.3,29.98,SE,135,4.6,5.4,55,0.00,CLR,,0.00,WeatherDisplay:10.37,2013-03-11 20:33:00,
2013-03-11 16:38:00,81.0,62.2,29.98,ESE,112,6.9,6.9,53,0.00,CLR,,0.00,WeatherDisplay:10.37,2013-03-11 20:38:00,
2013-03-11 16:43:00,80.8,63.1,29.98,ESE,112,6.9,6.9,55,0.00,CLR,,0.00,WeatherDisplay:10.37,2013-03-11 20:43:00,
2013-03-11 16:48:00,80.8,63.1,29.98,SE,135,4.6,5.3,55,0.00,CLR,,0.00,WeatherDisplay:10.37,2013-03-11 20:48:00,
2013-03-11 16:53:00,80.4,62.8,29.97,SSE,158,6.9,6.9,55,0.00,CLR,,0.00,WeatherDisplay:10.37,2013-03-11 20:53:00,
2013-03-11 16:58:00,79.9,62.3,29.97,SSE,158,6.9,6.9,55,0.00,CLR,,0.00,WeatherDisplay:10.37,2013-03-11 20:58:00,
2013-03-11 17:03:00,79.7,62.6,29.97,SE,135,11.5,11.5,56,0.00,CLR,,0.00,WeatherDisplay:10.37,2013-03-11 21:03:00,
2013-03-11 17:08:00,79.5,62.9,29.97,SE,135,6.9,6.9,57,0.00,CLR,,0.00,WeatherDisplay:10.37,2013-03-11 21:08:00,
2013-03-11 17:13:00,79.5,62.9,29.97,SE,135,8.1,8.1,57,0.00,CLR,,0.00,WeatherDisplay:10.37,2013-03-11 21:13:00,
2013-03-11 17:18:00,79.5,63.4,29.97,SSE,158,9.2,9.2,58,0.00,CLR,,0.00,WeatherDisplay:10.37,2013-03-11 21:18:00,
2013-03-11 17:23:00,79.3,63.3,29.97,South,180,11.5,11.5,58,0.00,CLR,,0.00,WeatherDisplay:10.37,2013-03-11 21:23:00,
2013-03-11 17:28:00,78.8,62.8,29.97,SE,135,5.8,5.8,58,0.00,CLR,,0.00,WeatherDisplay:10.37,2013-03-11 21:28:00,
2013-03-11 17:33:00,78.8,63.3,29.95,South,180,8.1,8.1,59,0.00,CLR,,0.00,WeatherDisplay:10.37,2013-03-11 21:33:00,
2013-03-11 17:38:00,78.8,62.8,29.95,SE,135,9.2,9.2,58,0.00,CLR,,0.00,WeatherDisplay:10.37,2013-03-11 21:38:00,
2013-03-11 17:43:00,78.6,62.6,29.95,West,270,6.9,6.9,58,0.00,CLR,,0.00,WeatherDisplay:10.37,2013-03-11 21:43:00,
2013-03-11 17:48:00,78.3,62.8,29.95,SE,135,10.4,10.4,59,0.00,CLR,,0.00,WeatherDisplay:10.37,2013-03-11 21:48:00,
2013-03-11 17:53:00,77.9,62.4,29.95,SE,135,6.9,6.9,59,0.00,CLR,,0.00,WeatherDisplay:10.37,2013-03-11 21:53:00,
2013-03-11 17:58:00,77.4,62.4,29.95,ESE,112,6.9,6.9,60,0.00,CLR,,0.00,WeatherDisplay:10.37,2013-03-11 21:58:00,
2013-03-11 18:03:00,77.5,62.6,29.95,SSE,158,9.2,9.2,60,0.00,CLR,,0.00,WeatherDisplay:10.37,2013-03-11 22:03:00,
2013-03-11 18:08:00,77.2,62.7,29.95,SE,135,9.2,9.2,61,0.00,CLR,,0.00,WeatherDisplay:10.37,2013-03-11 22:08:00,
2013-03-11 18:13:00,77.2,62.7,29.93,SE,135,9.2,9.2,61,0.00,CLR,,0.00,WeatherDisplay:10.37,2013-03-11 22:13:00,
2013-03-11 18:18:00,77.0,62.5,29.93,SE,135,11.5,11.5,61,0.00,CLR,,0.00,WeatherDisplay:10.37,2013-03-11 22:18:00,
2013-03-11 18:23:00,77.0,63.0,29.93,ESE,112,9.2,9.2,62,0.00,CLR,,0.00,WeatherDisplay:10.37,2013-03-11 22:23:00,
2013-03-11 18:28:00,76.5,62.0,29.93,SE,135,6.9,6.9,61,0.00,CLR,,0.00,WeatherDisplay:10.37,2013-03-11 22:28:00,
2013-03-11 18:33:00,76.5,62.0,29.93,SE,135,10.4,10.4,61,0.00,CLR,,0.00,WeatherDisplay:10.37,2013-03-11 22:33:00,
2013-03-11 18:38:00,76.1,61.7,29.93,SSE,158,8.1,8.1,61,0.00,CLR,,0.00,WeatherDisplay:10.37,2013-03-11 22:38:00,
2013-03-11 18:43:00,76.1,61.7,29.93,SE,135,5.8,5.8,61,0.00,CLR,,0.00,WeatherDisplay:10.37,2013-03-11 22:43:00,
2013-03-11 18:48:00,75.9,61.5,29.93,SE,135,9.2,9.2,61,0.00,CLR,,0.00,WeatherDisplay:10.37,2013-03-11 22:48:00,
2013-03-11 18:53:00,75.9,61.5,29.95,SE,135,6.9,6.9,61,0.00,CLR,,0.00,WeatherDisplay:10.37,2013-03-11 22:53:00,
2013-03-11 18:58:00,75.7,61.3,29.95,SSE,158,8.1,8.1,61,0.00,CLR,,0.00,WeatherDisplay:10.37,2013-03-11 22:58:00,
2013-03-11 19:04:00,75.7,61.8,29.95,SE,135,9.2,9.2,62,0.00,CLR,,0.00,WeatherDisplay:10.37,2013-03-11 23:04:00,
2013-03-11 19:09:00,75.4,61.9,29.95,ESE,112,4.6,5.1,63,0.00,CLR,,0.00,WeatherDisplay:10.37,2013-03-11 23:09:00,
2013-03-11 19:14:00,75.4,61.9,29.94,SSE,158,6.9,6.9,63,0.00,CLR,,0.00,WeatherDisplay:10.37,2013-03-11 23:14:00,
2013-03-11 19:19:00,75.0,61.6,29.94,SSE,158,6.9,6.9,63,0.00,CLR,,0.00,WeatherDisplay:10.37,2013-03-11 23:19:00,
2013-03-11 19:24:00,75.0,61.6,29.94,SE,135,5.8,5.8,63,0.00,CLR,,0.00,WeatherDisplay:10.37,2013-03-11 23:24:00,
2013-03-11 19:29:00,74.8,61.4,29.94,SE,135,8.1,8.1,63,0.00,CLR,,0.00,WeatherDisplay:10.37,2013-03-11 23:29:00,
2013-03-11 19:34:00,74.7,61.7,29.94,ESE,112,9.2,9.2,64,0.00,CLR,,0.00,WeatherDisplay:10.37,2013-03-11 23:34:00,
2013-03-11 19:39:00,74.5,61.5,29.94,SE,135,5.8,5.8,64,0.00,CLR,,0.00,WeatherDisplay:10.37,2013-03-11 23:39:00,
2013-03-11 19:44:00,74.3,61.8,29.94,SSE,158,4.6,4.9,65,0.00,CLR,,0.00,WeatherDisplay:10.37,2013-03-11 23:44:00,
2013-03-11 19:49:00,74.3,61.8,29.94,South,180,6.9,6.9,65,0.00,CLR,,0.00,WeatherDisplay:10.37,2013-03-11 23:49:00,
2013-03-11 19:54:00,74.3,61.8,29.95,SE,135,5.8,5.8,65,0.00,CLR,,0.00,WeatherDisplay:10.37,2013-03-11 23:54:00,
2013-03-11 19:59:00,74.1,61.6,29.95,SE,135,6.9,6.9,65,0.00,CLR,,0.00,WeatherDisplay:10.37,2013-03-11 23:59:00,
2013-03-11 20:04:00,73.9,61.4,29.95,South,180,8.1,8.1,65,0.00,CLR,,0.00,WeatherDisplay:10.37,2013-03-12 00:04:00,
2013-03-11 20:09:00,73.8,61.3,29.95,SSE,158,8.1,8.1,65,0.00,CLR,,0.00,WeatherDisplay:10.37,2013-03-12 00:09:00,
2013-03-11 20:14:00,73.8,61.3,29.95,SSE,158,4.6,4.8,65,0.00,CLR,,0.00,WeatherDisplay:10.37,2013-03-12 00:14:00,
2013-03-11 20:19:00,73.8,61.3,29.95,SE,135,4.6,4.6,65,0.00,CLR,,0.00,WeatherDisplay:10.37,2013-03-12 00:19:00,
2013-03-11 20:24:00,73.8,61.3,29.95,SE,135,4.6,4.6,65,0.00,CLR,,0.00,WeatherDisplay:10.37,2013-03-12 00:24:00,
2013-03-11 20:29:00,73.8,61.3,29.95,ESE,112,6.9,6.9,65,0.00,CLR,,0.00,WeatherDisplay:10.37,2013-03-12 00:29:00,
2013-03-11 20:34:00,73.8,61.3,29.95,SE,135,5.8,5.8,65,0.00,CLR,,0.00,WeatherDisplay:10.37,2013-03-12 00:34:00,
2013-03-11 20:39:00,73.9,61.9,29.95,SSE,158,5.8,5.8,66,0.00,CLR,,0.00,WeatherDisplay:10.37,2013-03-12 00:39:00,
2013-03-11 20:44:00,73.9,61.9,29.95,SSE,158,3.5,3.5,66,0.00,CLR,,0.00,WeatherDisplay:10.37,2013-03-12 00:44:00,
2013-03-11 20:49:00,73.8,61.7,29.95,SSE,158,4.6,4.6,66,0.00,CLR,,0.00,WeatherDisplay:10.37,2013-03-12 00:49:00,
2013-03-11 20:54:00,73.8,61.3,29.96,SSE,158,8.1,8.1,65,0.00,CLR,,0.00,WeatherDisplay:10.37,2013-03-12 00:54:00,
2013-03-11 20:59:00,73.9,61.9,29.96,South,180,4.6,4.6,66,0.00,CLR,,0.00,WeatherDisplay:10.37,2013-03-12 00:59:00,
2013-03-11 21:04:00,73.9,61.9,29.96,SE,135,3.5,3.7,66,0.00,CLR,,0.00,WeatherDisplay:10.37,2013-03-12 01:04:00,
2013-03-11 21:09:00,73.9,61.9,29.96,SSE,158,4.6,4.6,66,0.00,CLR,,0.00,WeatherDisplay:10.37,2013-03-12 01:09:00,
2013-03-11 21:14:00,73.9,61.9,29.97,SE,135,4.6,4.6,66,0.00,CLR,,0.00,WeatherDisplay:10.37,2013-03-12 01:14:00,
2013-03-11 21:19:00,74.1,62.0,29.97,SSE,158,5.8,5.8,66,0.00,CLR,,0.00,WeatherDisplay:10.37,2013-03-12 01:19:00,
2013-03-11 21:24:00,73.9,61.9,29.97,SSE,158,3.5,3.5,66,0.00,CLR,,0.00,WeatherDisplay:10.37,2013-03-12 01:24:00,
2013-03-11 21:29:00,73.9,61.9,29.97,SSE,158,6.9,6.9,66,0.00,CLR,,0.00,WeatherDisplay:10.37,2013-03-12 01:29:00,
2013-03-11 21:34:00,73.9,61.9,29.95,SE,135,5.8,5.8,66,0.00,CLR,,0.00,WeatherDisplay:10.37,2013-03-12 01:34:00,
2013-03-11 21:39:00,73.9,61.9,29.95,SE,135,8.1,8.1,66,0.00,CLR,,0.00,WeatherDisplay:10.37,2013-03-12 01:39:00,
2013-03-11 21:44:00,73.9,61.9,29.95,SSE,158,6.9,6.9,66,0.00,CLR,,0.00,WeatherDisplay:10.37,2013-03-12 01:44:00,
2013-03-11 21:49:00,74.1,62.0,29.95,SSE,158,6.9,6.9,66,0.00,CLR,,0.00,WeatherDisplay:10.37,2013-03-12 01:49:00,
2013-03-11 21:54:00,73.9,61.9,29.96,SE,135,6.9,6.9,66,0.00,CLR,,0.00,WeatherDisplay:10.37,2013-03-12 01:54:00,
2013-03-11 21:59:00,73.9,61.9,29.96,ESE,112,5.8,5.8,66,0.00,CLR,,0.00,WeatherDisplay:10.37,2013-03-12 01:59:00,
2013-03-11 22:04:00,73.9,61.9,29.96,South,180,5.8,5.8,66,0.00,CLR,,0.00,WeatherDisplay:10.37,2013-03-12 02:04:00,
2013-03-11 22:09:00,73.8,62.1,29.96,SSE,158,6.9,6.9,67,0.00,CLR,,0.00,WeatherDisplay:10.37,2013-03-12 02:09:00,
2013-03-11 22:14:00,73.8,62.1,29.96,South,180,9.2,9.2,67,0.00,CLR,,0.00,WeatherDisplay:10.37,2013-03-12 02:14:00,
2013-03-11 22:19:00,73.6,61.9,29.96,SE,135,5.8,5.8,67,0.00,CLR,,0.00,WeatherDisplay:10.37,2013-03-12 02:19:00,
2013-03-11 22:24:00,73.4,62.2,29.96,SW,225,2.3,3.8,68,0.00,CLR,,0.00,WeatherDisplay:10.37,2013-03-12 02:24:00,
2013-03-11 22:29:00,73.6,62.4,29.96,WNW,292,6.9,6.9,68,0.00,CLR,,0.00,WeatherDisplay:10.37,2013-03-12 02:29:00,
2013-03-11 22:34:00,73.6,62.4,29.97,SE,135,3.5,3.8,68,0.00,CLR,,0.00,WeatherDisplay:10.37,2013-03-12 02:34:00,
2013-03-11 22:40:00,73.2,62.0,29.97,SE,135,6.9,6.9,68,0.00,CLR,,0.00,WeatherDisplay:10.37,2013-03-12 02:40:00,
2013-03-11 22:45:00,73.2,62.0,29.97,SE,135,11.5,11.5,68,0.00,CLR,,0.00,WeatherDisplay:10.37,2013-03-12 02:45:00,
2013-03-11 22:50:00,73.2,62.0,29.97,ESE,112,6.9,6.9,68,0.00,CLR,,0.00,WeatherDisplay:10.37,2013-03-12 02:50:00,
2013-03-11 22:55:00,73.2,62.0,29.97,SE,135,4.6,4.7,68,0.00,CLR,,0.00,WeatherDisplay:10.37,2013-03-12 02:55:00,
2013-03-11 23:00:00,73.2,62.0,29.97,SE,135,8.1,8.1,68,0.00,CLR,,0.00,WeatherDisplay:10.37,2013-03-12 03:00:00,
2013-03-11 23:05:00,73.0,61.4,29.97,ESE,112,4.6,5.5,67,0.00,CLR,,0.00,WeatherDisplay:10.37,2013-03-12 03:05:00,
2013-03-11 23:10:00,73.0,61.4,29.97,South,180,9.2,9.2,67,0.00,CLR,,0.00,WeatherDisplay:10.37,2013-03-12 03:10:00,
2013-03-11 23:15:00,73.2,61.6,29.96,SE,135,8.1,8.1,67,0.00,CLR,,0.00,WeatherDisplay:10.37,2013-03-12 03:15:00,
2013-03-11 23:20:00,73.0,61.4,29.96,South,180,5.8,5.8,67,0.00,CLR,,0.00,WeatherDisplay:10.37,2013-03-12 03:20:00,
2013-03-11 23:25:00,73.0,61.9,29.96,SSE,158,8.1,8.1,68,0.00,CLR,,0.00,WeatherDisplay:10.37,2013-03-12 03:25:00,
2013-03-11 23:30:00,73.0,61.9,29.96,SE,135,5.8,5.8,68,0.00,CLR,,0.00,WeatherDisplay:10.37,2013-03-12 03:30:00,
2013-03-11 23:35:00,72.9,61.7,29.95,South,180,11.5,11.5,68,0.00,CLR,,0.00,WeatherDisplay:10.37,2013-03-12 03:35:00,
2013-03-11 23:40:00,72.9,61.7,29.95,SSE,158,6.9,6.9,68,0.00,CLR,,0.00,WeatherDisplay:10.37,2013-03-12 03:40:00,
2013-03-11 23:45:00,72.9,61.3,29.95,ESE,112,5.8,5.8,67,0.00,CLR,,0.00,WeatherDisplay:10.37,2013-03-12 03:45:00,
2013-03-11 23:50:00,72.9,61.7,29.95,South,180,6.9,6.9,68,0.00,CLR,,0.00,WeatherDisplay:10.37,2013-03-12 03:50:00,
2013-03-11 23:55:00,72.9,61.7,29.95,SE,135,10.4,10.4,68,0.00,CLR,,0.00,WeatherDisplay:10.37,2013-03-12 03:55:00,